KLM22 EBCI-EGPH

Flight info

Callsign KLM22
Flight time N/A
Altitude 38000
Route CIV UY50 LUMEN L610 KOPUL DCT SABER DCT SIVDA DCT BETAX L613 LEHOC DCT INPIP
Aircraft B738/M-SDE2E3FGHIRWXY/LB1

Departure

Time N/A
Airport Brussels South Charleroi Airport (EBCI)

Arrival

Time 2026-05-06 17:50
Airport Edinburgh Airport (EGPH)
Time Latitude Longitude Altitude Speed Heading
2026-05-06 17:24 54.04873 -2.05092 38046 ft 437 kts 327°
2026-05-06 17:24 54.10113 -2.10248 38034 ft 437 kts 328°
2026-05-06 17:25 54.15382 -2.15438 38027 ft 436 kts 328°
2026-05-06 17:25 54.20626 -2.20683 38034 ft 436 kts 328°
2026-05-06 17:26 54.25857 -2.25963 38038 ft 436 kts 327°
2026-05-06 17:26 54.28479 -2.28620 37739 ft 441 kts 327°
2026-05-06 17:26 54.31121 -2.31301 37250 ft 440 kts 328°
2026-05-06 17:26 54.33746 -2.33967 36674 ft 437 kts 328°
2026-05-06 17:27 54.36355 -2.36620 36077 ft 435 kts 328°
2026-05-06 17:27 54.38928 -2.39240 35453 ft 435 kts 328°
2026-05-06 17:27 54.41533 -2.41898 34806 ft 435 kts 328°
2026-05-06 17:27 54.44132 -2.44553 34260 ft 432 kts 329°
2026-05-06 17:28 54.46697 -2.47176 33827 ft 426 kts 329°
2026-05-06 17:28 54.49185 -2.49725 33520 ft 408 kts 328°
2026-05-06 17:28 54.51598 -2.52199 32822 ft 401 kts 328°
2026-05-06 17:28 54.53992 -2.54658 31931 ft 399 kts 328°
2026-05-06 17:29 54.56364 -2.57098 31100 ft 396 kts 328°
2026-05-06 17:29 54.58715 -2.59521 30357 ft 391 kts 328°
2026-05-06 17:29 54.61035 -2.61915 29579 ft 386 kts 328°
2026-05-06 17:29 54.63331 -2.64286 28734 ft 382 kts 328°
2026-05-06 17:30 54.65603 -2.66636 27894 ft 378 kts 327°
2026-05-06 17:30 54.67825 -2.68938 27084 ft 375 kts 327°
2026-05-06 17:30 54.70049 -2.71245 26299 ft 372 kts 327°
2026-05-06 17:30 54.72258 -2.73539 25543 ft 369 kts 327°
2026-05-06 17:31 54.74452 -2.75820 24822 ft 366 kts 327°
2026-05-06 17:31 54.76620 -2.78077 24264 ft 359 kts 327°
2026-05-06 17:31 54.78735 -2.80281 23808 ft 351 kts 327°
2026-05-06 17:31 54.80820 -2.82458 23377 ft 349 kts 327°
2026-05-06 17:32 54.82892 -2.84623 22917 ft 347 kts 327°
2026-05-06 17:32 54.84954 -2.86780 22480 ft 344 kts 326°
2026-05-06 17:32 54.86997 -2.88919 22094 ft 342 kts 326°
2026-05-06 17:32 54.89074 -2.90859 22040 ft 338 kts 333°
2026-05-06 17:33 54.91218 -2.92445 22018 ft 338 kts 335°
2026-05-06 17:33 54.93378 -2.93932 22003 ft 328 kts 335°
2026-05-06 17:33 54.95457 -2.95387 21999 ft 315 kts 334°
2026-05-06 17:33 54.97442 -2.96825 22013 ft 302 kts 334°
2026-05-06 17:34 54.99357 -2.98212 21893 ft 293 kts 334°
2026-05-06 17:34 55.01255 -2.99586 21346 ft 302 kts 334°
2026-05-06 17:34 55.03268 -3.01058 20739 ft 329 kts 334°
2026-05-06 17:34 55.05457 -3.02677 20129 ft 348 kts 334°
2026-05-06 17:35 55.07673 -3.04321 19516 ft 353 kts 334°
2026-05-06 17:35 55.09956 -3.06015 18803 ft 359 kts 334°
2026-05-06 17:35 55.12280 -3.07739 18042 ft 364 kts 334°
2026-05-06 17:36 55.16993 -3.11256 16438 ft 371 kts 334°
2026-05-06 17:36 55.19376 -3.13056 15658 ft 373 kts 334°
2026-05-06 17:36 55.21744 -3.14862 14797 ft 368 kts 334°
2026-05-06 17:36 55.24079 -3.16658 13945 ft 363 kts 334°
2026-05-06 17:37 55.26344 -3.18410 13028 ft 358 kts 334°
2026-05-06 17:37 55.28607 -3.20174 12101 ft 354 kts 334°
2026-05-06 17:37 55.30844 -3.21931 11208 ft 350 kts 334°
2026-05-06 17:37 55.33052 -3.23680 10335 ft 347 kts 334°
2026-05-06 17:38 55.35238 -3.25425 9522 ft 342 kts 334°
2026-05-06 17:38 55.37339 -3.27109 9247 ft 321 kts 334°
2026-05-06 17:38 55.39310 -3.28687 9083 ft 301 kts 334°
2026-05-06 17:38 55.41191 -3.30193 8391 ft 299 kts 334°
2026-05-06 17:39 55.43106 -3.31740 7485 ft 305 kts 334°
2026-05-06 17:39 55.45042 -3.33322 6635 ft 308 kts 334°
2026-05-06 17:39 55.46941 -3.34905 6330 ft 293 kts 334°
2026-05-06 17:39 55.48712 -3.36378 6190 ft 279 kts 333°
2026-05-06 17:40 55.50455 -3.37795 6051 ft 272 kts 333°
2026-05-06 17:40 55.52176 -3.39190 5999 ft 270 kts 334°
2026-05-06 17:40 55.53871 -3.40574 6009 ft 267 kts 334°
2026-05-06 17:40 55.55547 -3.41933 5992 ft 263 kts 334°
2026-05-06 17:41 55.57182 -3.43250 5996 ft 259 kts 333°
2026-05-06 17:41 55.58817 -3.44566 6005 ft 258 kts 334°
2026-05-06 17:41 55.60457 -3.45892 6008 ft 258 kts 334°
2026-05-06 17:41 55.62089 -3.47222 6001 ft 258 kts 334°
2026-05-06 17:42 55.63724 -3.48556 6004 ft 259 kts 333°
2026-05-06 17:42 55.65355 -3.49926 5988 ft 258 kts 328°
2026-05-06 17:42 55.66910 -3.51503 6001 ft 257 kts 328°
2026-05-06 17:42 55.67943 -3.52544 5922 ft 260 kts 329°
2026-05-06 17:43 55.69545 -3.54161 5359 ft 268 kts 329°
2026-05-06 17:43 55.71178 -3.55816 4716 ft 272 kts 328°
2026-05-06 17:43 55.72822 -3.57493 4200 ft 271 kts 328°
2026-05-06 17:43 55.74409 -3.59112 4038 ft 253 kts 328°
2026-05-06 17:44 55.75861 -3.60593 3989 ft 228 kts 328°
2026-05-06 17:44 55.77230 -3.61993 4026 ft 229 kts 328°
2026-05-06 17:44 55.78637 -3.63437 3619 ft 241 kts 328°
2026-05-06 17:44 55.80059 -3.64901 3241 ft 233 kts 329°
2026-05-06 17:45 55.81533 -3.65743 3039 ft 219 kts
2026-05-06 17:45 55.82893 -3.64882 3021 ft 200 kts 30°
2026-05-06 17:45 55.84088 -3.63749 3010 ft 192 kts 28°
2026-05-06 17:45 55.85266 -3.62655 3013 ft 187 kts 28°
2026-05-06 17:46 55.86391 -3.61599 2981 ft 180 kts 31°
2026-05-06 17:46 55.87262 -3.60076 2949 ft 176 kts 60°
2026-05-06 17:46 55.87886 -3.58287 2739 ft 164 kts 60°
2026-05-06 17:46 55.88449 -3.56661 2522 ft 148 kts 61°
2026-05-06 17:47 55.88967 -3.55132 2328 ft 145 kts 61°
2026-05-06 17:47 55.89489 -3.53580 2136 ft 147 kts 61°
2026-05-06 17:47 55.90013 -3.52022 1923 ft 146 kts 61°
2026-05-06 17:47 55.90531 -3.50487 1721 ft 144 kts 62°
2026-05-06 17:48 55.91045 -3.48959 1530 ft 143 kts 62°
2026-05-06 17:48 55.91558 -3.47437 1327 ft 142 kts 60°
2026-05-06 17:48 55.92061 -3.45945 1118 ft 139 kts 61°
2026-05-06 17:48 55.92554 -3.44483 922 ft 136 kts 60°
2026-05-06 17:49 55.93036 -3.43049 723 ft 134 kts 60°
2026-05-06 17:49 55.93516 -3.41627 533 ft 133 kts 60°
2026-05-06 17:49 55.93988 -3.40254 353 ft 130 kts 59°
2026-05-06 17:49 55.94441 -3.38892 172 ft 122 kts 58°
2026-05-06 17:50 55.94844 -3.37715 112 ft 96 kts 59°
2026-05-06 17:50 55.95109 -3.36922 108 ft 59 kts 59°
2026-05-06 17:50 55.95253 -3.36453 101 ft 26 kts 96°
2026-05-06 17:50 55.95200 -3.36358 101 ft 2 kts 145°
2026-05-06 17:51 55.95175 -3.36331 102 ft 0 kts 149°
2026-05-06 17:51 55.95170 -3.36325 102 ft 5 kts 149°
2026-05-06 17:51 55.95137 -3.36230 103 ft 11 kts 106°
2026-05-06 17:52 55.95114 -3.36106 103 ft 10 kts 109°
2026-05-06 17:52 55.95090 -3.35987 105 ft 10 kts 111°
2026-05-06 17:52 55.95059 -3.35878 105 ft 10 kts 120°
2026-05-06 17:52 55.95013 -3.35832 105 ft 7 kts 206°
2026-05-06 17:53 55.94969 -3.35861 106 ft 7 kts 182°
2026-05-06 17:53 55.94928 -3.35826 106 ft 7 kts 139°
2026-05-06 17:53 55.94883 -3.35839 106 ft 7 kts 209°
2026-05-06 17:53 55.94850 -3.35874 105 ft 1 kts 213°